Weather History for Houghton, MI

Change the Weather History Date:

Tuesday, September 3, 2013

  Actual Average Record
Temperature  
Mean Temperature 60 °F -  
Max Temperature 70 °F 69 °F 92 °F (1960)
Min Temperature 51 °F 51 °F 39 °F (1974)
Degree Days  
Heating Degree Days 5    
Growing Degree Days 10 (Base 50)    
Moisture  
Dew Point 52 °F    
Average Humidity 72    
Maximum Humidity 93    
Minimum Humidity 40    
Precipitation  
Precipitation 0.01 in - - ()
Sea Level Pressure  
Sea Level Pressure 29.96 in    
Wind  
Wind Speed 10 mph (West)    
Max Wind Speed 23 mph    
Max Gust Speed 33 mph    
Visibility 10 miles    
Events      
Averages and records for this station are not official NWS values.
T = Trace of Precipitation, MM = Missing Value Source: NWS Daily Summary

Daily Weather History Graph

Daily Weather History Graph

Search for Another Location

Airport:

Trip Planner

Search our weather history database for the weather conditions in past years. The results will help you decide how hot, cold, wet, or windy it might be!

Date:

Astronomy

Sep. 03, 2013 Rise Set
Actual Time 7:16 AM EDT 8:29 PM EDT
Civil Twilight 6:44 AM EDT 9:00 PM EDT
Nautical Twilight 6:06 AM EDT 9:38 PM EDT
Astronomical Twilight 5:26 AM EDT 10:18 PM EDT
Moon 5:26 AM EDT (9/3) 7:17 PM EDT (9/3)
Length of Visible Light 14h 16m
Length of Day
13h 13m
Waning Crescent, 3% of the Moon is Illuminated
Sep 3
Waning Crescent
Sep 5
New
Sep 12
First Quarter
Sep 19
Full
Sep 26
Last Quarter

Hourly Weather History & Observations

Time (EDT) Temp. Dew Point Humidity Pressure Visibility Wind Dir Wind Speed Gust Speed Precip Events Conditions
12:53 AM 52.0 °F 50.0 °F 93% 30.00 in 10.0 mi West 3.5 mph - N/A   Clear
1:53 AM 55.0 °F 53.1 °F 93% 30.00 in 10.0 mi WNW 9.2 mph - N/A   Clear
2:53 AM 54.0 °F 51.1 °F 90% 30.00 in 10.0 mi WNW 8.1 mph - N/A   Clear
3:53 AM 53.1 °F 51.1 °F 93% 30.00 in 10.0 mi West 4.6 mph - N/A   Clear
4:53 AM 52.0 °F 50.0 °F 93% 29.99 in 10.0 mi WNW 5.8 mph - N/A   Clear
5:53 AM 51.1 °F 48.9 °F 92% 29.99 in 10.0 mi WNW 4.6 mph - N/A   Clear
6:53 AM 51.1 °F 48.9 °F 92% 30.01 in 10.0 mi West 3.5 mph - 0.01 in   Clear
8:53 AM 57.9 °F 55.0 °F 90% 30.01 in 10.0 mi West 8.1 mph - N/A   Clear
9:53 AM 60.1 °F 55.9 °F 86% 30.01 in 10.0 mi West 13.8 mph - N/A   Clear
10:04 AM 60.8 °F 55.4 °F 82% 30.00 in 10.0 mi West 10.4 mph - N/A   Partly Cloudy
10:41 AM 62.6 °F 55.4 °F 77% 30.00 in 10.0 mi West 15.0 mph - N/A   Mostly Cloudy
10:51 AM 62.6 °F 55.4 °F 77% 29.99 in 10.0 mi West 15.0 mph - N/A   Scattered Clouds
10:53 AM 63.0 °F 55.9 °F 78% 30.00 in 10.0 mi West 15.0 mph - N/A   Scattered Clouds
11:53 AM 64.9 °F 53.1 °F 65% 29.99 in 10.0 mi West 17.3 mph - N/A   Scattered Clouds
12:53 PM 66.0 °F 52.0 °F 60% 29.98 in 10.0 mi West 17.3 mph - N/A   Clear
1:53 PM 66.9 °F 50.0 °F 54% 29.97 in 10.0 mi West 23.0 mph 33.4 mph N/A   Clear
2:53 PM 66.9 °F 51.1 °F 57% 29.95 in 10.0 mi West 18.4 mph 25.3 mph N/A   Clear
3:53 PM 68.0 °F 51.1 °F 55% 29.93 in 10.0 mi West 17.3 mph 25.3 mph N/A   Clear
4:53 PM 69.1 °F 44.1 °F 40% 29.91 in 10.0 mi West 11.5 mph 21.9 mph N/A   Clear
5:53 PM 69.1 °F 50.0 °F 51% 29.89 in 10.0 mi West 18.4 mph 27.6 mph N/A   Clear
6:53 PM 69.1 °F 51.1 °F 53% 29.89 in 10.0 mi West 18.4 mph 26.5 mph N/A   Clear
7:53 PM 68.0 °F 53.1 °F 59% 29.88 in 10.0 mi West 16.1 mph 24.2 mph N/A   Clear
8:53 PM 66.9 °F 53.1 °F 61% 29.87 in 10.0 mi West 15.0 mph - N/A   Clear
9:53 PM 66.9 °F 53.1 °F 61% 29.87 in 10.0 mi West 17.3 mph 24.2 mph N/A   Clear
10:53 PM 66.0 °F 53.1 °F 63% 29.88 in 10.0 mi West 18.4 mph 25.3 mph N/A   Clear
11:53 PM 66.9 °F 54.0 °F 63% 29.87 in 10.0 mi West 16.1 mph 26.5 mph N/A   Clear